Time,TemperatureF,DewpointF,PressureIn,WindDirection,WindDirectionDegrees,WindSpeedMPH,WindSpeedGustMPH,Humidity,HourlyPrecipIn,Conditions,Clouds,dailyrainin,SoftwareType,DateUTC
2013-02-19 00:02:00,-999.0,-99.9,-100.00,SSW,200,9.0,22.0,-999,0.00,,,0.00,,2013-02-19 05:02:00,
2013-02-19 00:13:00,-999.0,-99.9,-100.00,SSW,200,9.0,22.0,-999,0.00,,,0.00,,2013-02-19 05:13:00,
2013-02-19 00:43:00,-999.0,-99.9,-100.00,SSE,163,8.0,21.0,-999,0.00,,,0.00,,2013-02-19 05:43:00,
2013-02-19 00:53:00,-999.0,-99.9,-100.00,SSE,163,8.0,21.0,-999,0.00,,,0.00,,2013-02-19 05:53:00,
2013-02-19 01:03:00,-999.0,-99.9,-100.00,SSE,163,8.0,21.0,-999,0.00,,,0.00,,2013-02-19 06:03:00,
2013-02-19 01:12:00,-999.0,-99.9,-100.00,SSE,163,8.0,21.0,-999,0.00,,,0.00,,2013-02-19 06:12:00,
2013-02-19 01:42:00,-999.0,-99.9,-100.00,South,184,9.0,23.0,-999,0.00,,,0.00,,2013-02-19 06:42:00,
2013-02-19 01:53:00,-999.0,-99.9,-100.00,South,184,9.0,23.0,-999,0.00,,,0.00,,2013-02-19 06:53:00,
2013-02-19 02:02:00,-999.0,-99.9,-100.00,South,184,9.0,23.0,-999,0.00,,,0.00,,2013-02-19 07:02:00,
2013-02-19 02:12:00,-999.0,-99.9,-100.00,South,184,9.0,23.0,-999,0.00,,,0.00,,2013-02-19 07:12:00,
2013-02-19 02:42:00,-999.0,-99.9,-100.00,South,185,9.0,26.0,-999,0.00,,,0.00,,2013-02-19 07:42:00,
2013-02-19 02:52:00,-999.0,-99.9,-100.00,South,185,9.0,26.0,-999,0.00,,,0.00,,2013-02-19 07:52:00,
2013-02-19 03:02:00,-999.0,-99.9,-100.00,South,185,9.0,26.0,-999,0.00,,,0.00,,2013-02-19 08:02:00,
2013-02-19 03:12:00,-999.0,-99.9,-100.00,South,185,9.0,26.0,-999,0.00,,,0.00,,2013-02-19 08:12:00,
2013-02-19 03:42:00,-999.0,-99.9,-100.00,South,174,9.0,21.0,-999,0.00,,,0.00,,2013-02-19 08:42:00,
2013-02-19 03:52:00,-999.0,-99.9,-100.00,South,174,9.0,21.0,-999,0.00,,,0.00,,2013-02-19 08:52:00,
2013-02-19 04:02:00,-999.0,-99.9,-100.00,South,174,9.0,21.0,-999,0.00,,,0.00,,2013-02-19 09:02:00,
2013-02-19 04:11:00,-999.0,-99.9,-100.00,South,174,9.0,21.0,-999,0.00,,,0.00,,2013-02-19 09:11:00,
2013-02-19 04:42:00,-999.0,-99.9,-100.00,South,178,9.0,27.0,-999,0.00,,,0.00,,2013-02-19 09:42:00,
2013-02-19 04:53:00,-999.0,-99.9,-100.00,South,178,9.0,27.0,-999,0.00,,,0.00,,2013-02-19 09:53:00,
2013-02-19 05:02:00,-999.0,-99.9,-100.00,South,178,9.0,27.0,-999,0.00,,,0.00,,2013-02-19 10:02:00,
2013-02-19 05:11:00,-999.0,-99.9,-100.00,South,178,9.0,27.0,-999,0.00,,,0.00,,2013-02-19 10:11:00,
2013-02-19 05:42:00,-999.0,-99.9,-100.00,SSW,199,9.0,21.0,-999,0.00,,,0.00,,2013-02-19 10:42:00,
2013-02-19 05:52:00,-999.0,-99.9,-100.00,SSW,199,9.0,21.0,-999,0.00,,,0.00,,2013-02-19 10:52:00,
2013-02-19 06:02:00,-999.0,-99.9,-100.00,SSW,199,9.0,21.0,-999,0.00,,,0.00,,2013-02-19 11:02:00,
2013-02-19 06:12:00,-999.0,-99.9,-100.00,SSW,199,9.0,21.0,-999,0.00,,,0.00,,2013-02-19 11:12:00,
2013-02-19 06:42:00,-999.0,-99.9,-100.00,SSE,153,10.0,23.0,-999,0.00,,,0.00,,2013-02-19 11:42:00,
2013-02-19 06:52:00,-999.0,-99.9,-100.00,SSE,153,10.0,23.0,-999,0.00,,,0.00,,2013-02-19 11:52:00,
2013-02-19 07:02:00,-999.0,-99.9,-100.00,SSE,153,10.0,23.0,-999,0.00,,,0.00,,2013-02-19 12:02:00,
2013-02-19 07:12:00,-999.0,-99.9,-100.00,SSE,153,10.0,23.0,-999,0.00,,,0.00,,2013-02-19 12:12:00,
2013-02-19 07:42:00,-999.0,-99.9,-100.00,SSE,156,10.0,26.0,-999,0.00,,,0.00,,2013-02-19 12:42:00,
2013-02-19 07:53:00,-999.0,-99.9,-100.00,SSE,156,10.0,26.0,-999,0.00,,,0.00,,2013-02-19 12:53:00,
2013-02-19 08:02:00,-999.0,-99.9,-100.00,SSE,156,10.0,26.0,-999,0.00,,,0.00,,2013-02-19 13:02:00,
2013-02-19 08:12:00,-999.0,-99.9,-100.00,SSE,156,10.0,26.0,-999,0.00,,,0.00,,2013-02-19 13:12:00,
2013-02-19 08:52:00,-999.0,-99.9,-100.00,South,172,8.0,21.0,-999,0.00,,,0.00,,2013-02-19 13:52:00,
2013-02-19 09:02:00,-999.0,-99.9,-100.00,South,172,8.0,21.0,-999,0.00,,,0.00,,2013-02-19 14:02:00,
2013-02-19 09:12:00,-999.0,-99.9,-100.00,South,172,8.0,21.0,-999,0.00,,,0.00,,2013-02-19 14:12:00,
2013-02-19 09:42:00,-999.0,-99.9,-100.00,SE,137,8.0,21.0,-999,0.00,,,0.00,,2013-02-19 14:42:00,
2013-02-19 09:52:00,-999.0,-99.9,-100.00,SE,137,8.0,21.0,-999,0.00,,,0.00,,2013-02-19 14:52:00,
2013-02-19 10:02:00,-999.0,-99.9,-100.00,SE,137,8.0,21.0,-999,0.00,,,0.00,,2013-02-19 15:02:00,
2013-02-19 10:11:00,-999.0,-99.9,-100.00,SE,137,8.0,21.0,-999,0.00,,,0.00,,2013-02-19 15:11:00,
2013-02-19 10:42:00,-999.0,-99.9,-100.00,SSE,150,8.0,21.0,-999,0.00,,,0.00,,2013-02-19 15:42:00,
2013-02-19 10:52:00,-999.0,-99.9,-100.00,SSE,150,8.0,21.0,-999,0.00,,,0.00,,2013-02-19 15:52:00,
2013-02-19 11:02:00,-999.0,-99.9,-100.00,SSE,150,8.0,21.0,-999,0.00,,,0.00,,2013-02-19 16:02:00,
2013-02-19 11:12:00,-999.0,-99.9,-100.00,SSE,150,8.0,21.0,-999,0.00,,,0.00,,2013-02-19 16:12:00,
2013-02-19 11:42:00,-999.0,-99.9,-100.00,ESE,118,8.0,18.0,-999,0.00,,,0.00,,2013-02-19 16:42:00,
2013-02-19 11:52:00,-999.0,-99.9,-100.00,ESE,118,8.0,18.0,-999,0.00,,,0.00,,2013-02-19 16:52:00,
2013-02-19 12:01:00,-999.0,-99.9,-100.00,ESE,118,8.0,18.0,-999,0.00,,,0.00,,2013-02-19 17:01:00,
2013-02-19 12:11:00,-999.0,-99.9,-100.00,ESE,118,8.0,18.0,-999,0.00,,,0.00,,2013-02-19 17:11:00,
2013-02-19 12:42:00,-999.0,-99.9,-100.00,ESE,123,9.0,21.0,-999,0.00,,,0.00,,2013-02-19 17:42:00,
2013-02-19 12:52:00,-999.0,-99.9,-100.00,ESE,123,9.0,21.0,-999,0.00,,,0.00,,2013-02-19 17:52:00,
2013-02-19 13:02:00,-999.0,-99.9,-100.00,ESE,123,9.0,21.0,-999,0.00,,,0.00,,2013-02-19 18:02:00,
2013-02-19 13:11:00,-999.0,-99.9,-100.00,ESE,123,9.0,21.0,-999,0.00,,,0.00,,2013-02-19 18:11:00,
2013-02-19 13:42:00,-999.0,-99.9,-100.00,SSE,162,9.0,21.0,-999,0.01,,,0.01,,2013-02-19 18:42:00,
2013-02-19 13:52:00,-999.0,-99.9,-100.00,SSE,162,9.0,21.0,-999,0.01,,,0.01,,2013-02-19 18:52:00,
2013-02-19 14:01:00,-999.0,-99.9,-100.00,SSE,162,9.0,21.0,-999,0.01,,,0.01,,2013-02-19 19:01:00,
2013-02-19 14:11:00,-999.0,-99.9,-100.00,SSE,162,9.0,21.0,-999,0.01,,,0.01,,2013-02-19 19:11:00,
2013-02-19 14:42:00,-999.0,-99.9,-100.00,SSE,158,8.0,17.0,-999,0.00,,,0.01,,2013-02-19 19:42:00,
2013-02-19 14:52:00,-999.0,-99.9,-100.00,SSE,158,8.0,17.0,-999,0.00,,,0.01,,2013-02-19 19:52:00,
2013-02-19 15:02:00,-999.0,-99.9,-100.00,SSE,158,8.0,17.0,-999,0.00,,,0.01,,2013-02-19 20:02:00,
2013-02-19 15:12:00,-999.0,-99.9,-100.00,SSE,158,8.0,17.0,-999,0.00,,,0.01,,2013-02-19 20:12:00,
2013-02-19 15:42:00,-999.0,-99.9,-100.00,South,180,7.0,13.0,-999,0.00,,,0.01,,2013-02-19 20:42:00,
2013-02-19 15:52:00,-999.0,-99.9,-100.00,South,180,7.0,13.0,-999,0.00,,,0.01,,2013-02-19 20:52:00,
2013-02-19 16:02:00,-999.0,-99.9,-100.00,South,180,7.0,13.0,-999,0.00,,,0.01,,2013-02-19 21:02:00,
2013-02-19 16:12:00,-999.0,-99.9,-100.00,South,180,7.0,13.0,-999,0.00,,,0.01,,2013-02-19 21:12:00,
2013-02-19 16:52:00,-999.0,-99.9,-100.00,South,189,8.0,14.0,-999,0.02,,,0.03,,2013-02-19 21:52:00,
2013-02-19 17:02:00,-999.0,-99.9,-100.00,South,189,8.0,14.0,-999,0.02,,,0.03,,2013-02-19 22:02:00,
2013-02-19 17:11:00,-999.0,-99.9,-100.00,South,189,8.0,14.0,-999,0.02,,,0.03,,2013-02-19 22:11:00,
2013-02-19 17:52:00,-999.0,-99.9,-100.00,South,173,8.0,13.0,-999,0.02,,,0.05,,2013-02-19 22:52:00,
2013-02-19 18:01:00,-999.0,-99.9,-100.00,South,173,8.0,13.0,-999,0.02,,,0.05,,2013-02-19 23:01:00,
2013-02-19 18:11:00,-999.0,-99.9,-100.00,South,173,8.0,13.0,-999,0.02,,,0.05,,2013-02-19 23:11:00,
2013-02-19 18:42:00,-999.0,-99.9,-100.00,South,188,13.0,49.0,-999,0.00,,,0.05,,2013-02-19 23:42:00,
2013-02-19 18:52:00,-999.0,-99.9,-100.00,South,188,13.0,49.0,-999,0.00,,,0.05,,2013-02-19 23:52:00,
2013-02-19 19:02:00,-999.0,-99.9,-100.00,South,188,13.0,49.0,-999,0.00,,,0.05,,2013-02-20 00:02:00,
2013-02-19 19:12:00,-999.0,-99.9,-100.00,South,188,13.0,49.0,-999,0.00,,,0.05,,2013-02-20 00:12:00,
2013-02-19 19:42:00,-999.0,-99.9,-100.00,WSW,243,7.0,14.0,-999,0.01,,,0.06,,2013-02-20 00:42:00,
2013-02-19 19:52:00,-999.0,-99.9,-100.00,WSW,243,7.0,14.0,-999,0.01,,,0.06,,2013-02-20 00:52:00,
2013-02-19 20:02:00,-999.0,-99.9,-100.00,WSW,243,7.0,14.0,-999,0.01,,,0.06,,2013-02-20 01:02:00,
2013-02-19 20:11:00,-999.0,-99.9,-100.00,WSW,243,7.0,14.0,-999,0.01,,,0.06,,2013-02-20 01:11:00,
2013-02-19 20:42:00,-999.0,-99.9,-100.00,West,275,13.0,21.0,-999,0.00,,,0.06,,2013-02-20 01:42:00,
2013-02-19 20:52:00,-999.0,-99.9,-100.00,West,275,13.0,21.0,-999,0.00,,,0.06,,2013-02-20 01:52:00,
2013-02-19 21:02:00,-999.0,-99.9,-100.00,West,275,13.0,21.0,-999,0.00,,,0.06,,2013-02-20 02:02:00,
2013-02-19 21:11:00,-999.0,-99.9,-100.00,West,275,13.0,21.0,-999,0.00,,,0.06,,2013-02-20 02:11:00,
2013-02-19 21:42:00,-999.0,-99.9,-100.00,WNW,298,23.0,37.0,-999,0.00,,,0.06,,2013-02-20 02:42:00,
2013-02-19 21:52:00,-999.0,-99.9,-100.00,WNW,298,23.0,37.0,-999,0.00,,,0.06,,2013-02-20 02:52:00,
2013-02-19 22:02:00,-999.0,-99.9,-100.00,WNW,298,23.0,37.0,-999,0.00,,,0.06,,2013-02-20 03:02:00,
2013-02-19 22:12:00,-999.0,-99.9,-100.00,WNW,298,23.0,37.0,-999,0.00,,,0.06,,2013-02-20 03:12:00,
2013-02-19 22:42:00,-999.0,-99.9,-100.00,NW,304,25.0,30.0,-999,0.00,,,0.06,,2013-02-20 03:42:00,
2013-02-19 22:52:00,-999.0,-99.9,-100.00,NW,304,25.0,30.0,-999,0.00,,,0.06,,2013-02-20 03:52:00,
2013-02-19 23:02:00,-999.0,-99.9,-100.00,NW,304,25.0,30.0,-999,0.00,,,0.06,,2013-02-20 04:02:00,
2013-02-19 23:11:00,-999.0,-99.9,-100.00,NW,304,25.0,30.0,-999,0.00,,,0.06,,2013-02-20 04:11:00,
2013-02-19 23:42:00,-999.0,-99.9,-100.00,WNW,303,26.0,33.0,-999,0.00,,,0.06,,2013-02-20 04:42:00,
2013-02-19 23:52:00,-999.0,-99.9,-100.00,WNW,303,26.0,33.0,-999,0.00,,,0.06,,2013-02-20 04:52:00,